Temp_Advection
nan nan nan nan nan nan nan nan nan nan nan nan nan nan nan nan nan nan nan nan nan nan nan nan nan nan nan nan nan nan nan nan nan nan nan nan nan nan nan nan nan nan nan nan nan nan nan nan nan nan nan nan nan nan nan nan nan nan nan nan nan nan nan
nan -0 -0 -0 -0 -0 -0 -0 -0 -0 -0 -0 -0 -0 -0 -0 -0 -0 0 0 -0 -0 -0 0 -0 -0 -0 0 0 0 1 0 -0 0 1 0 -0 -0 0 0 0 0 1 0 0 0 -0 -0 0 0 -0 0 -0 -0 -0 -0 -0 0 0 0 -0 -0 nan
nan 0 -0 -0 -0 -0 -0 -0 -0 -0 -0 -0 -0 -0 -0 -0 -0 -0 -0 -0 -0 -0 0 0 0 -0 -0 -0 0 0 0 -0 0 1 0 -0 0 0 0 0 0 1 1 0 0 -0 -0 -0 0 -0 -0 -0 -1 -0 0 0 -0 0 0 0 -0 -0 nan
nan 0 -0 -0 -0 -0 -0 -0 -0 -0 -0 -0 -0 -0 -0 -0 -0 0 -0 -0 -0 -0 -0 0 0 0 -0 -0 -0 0 0 -0 -0 0 0 0 0 0 0 0 0 0 0 -0 -0 -0 -1 -0 0 -0 -0 -0 -0 0 0 0 0 0 0 0 -0 -0 nan
nan -0 0 0 -0 -0 -0 -0 -0 -0 -0 0 0 -0 -0 -0 -0 0 0 0 0 -0 -0 -0 -0 -0 0 -0 -0 0 1 0 -0 -0 0 1 -0 -0 1 1 0 0 0 -0 -0 -0 -1 -0 0 0 -0 0 0 0 0 1 0 0 0 -0 -0 0 nan
nan -0 0 0 0 -0 -0 -0 -1 -0 -0 0 0 0 -0 -0 -0 -0 0 0 0 0 -0 -0 -0 -0 -0 -0 -0 -0 0 0 -0 -0 0 0 0 -0 0 0 0 0 0 0 0 -0 0 0 1 -0 -0 0 0 0 1 1 0 0 0 -0 0 0 nan
nan -0 -0 -0 -0 -0 -0 -0 -1 -1 -1 -0 -0 0 0 -0 -0 -0 -0 -0 -0 -0 -0 -0 -0 -0 -0 0 -0 -0 -0 -0 -0 -0 0 0 0 0 0 0 0 0 0 0 0 0 0 0 -0 -0 -0 0 0 0 1 1 0 -0 -0 -0 0 0 nan
nan -0 -0 -1 -0 -0 -0 -0 -0 -1 -1 -0 -0 -0 0 -0 -0 -0 -0 -0 -0 -0 -0 -0 -0 -0 -0 0 0 -0 -0 -0 -1 -0 0 0 0 0 0 -0 0 1 0 0 0 0 -0 -0 -0 -0 -0 0 1 1 0 0 0 -1 -0 0 0 0 nan
nan -0 -1 -1 -0 -0 -0 -0 -0 -0 -0 -0 -0 -0 -0 -0 -1 -1 -0 -0 -0 -0 -0 0 -0 -0 -1 -0 0 0 -0 -0 -0 -1 -0 0 0 0 0 -0 0 0 -0 -0 0 0 -0 -0 -0 -0 0 0 0 0 0 0 -0 -1 -0 0 0 0 nan
nan -0 -0 -1 -1 -1 -0 -1 -1 -0 -0 -0 -0 -0 -1 -1 -1 -1 -1 -0 -0 -1 -0 0 -0 -0 -0 -0 -0 -0 -0 -0 -0 -0 -0 -0 -0 0 0 0 0 -0 -0 -0 -0 0 0 0 -0 -0 -0 -0 -0 0 -0 -1 -1 -1 -0 0 -0 -0 nan
nan -1 -1 -1 -1 -1 -1 -1 -1 -1 -0 -0 -0 -0 -1 -1 -0 -1 -1 -0 -0 -0 -0 -0 0 -0 -0 -0 -0 -0 0 -0 -1 -1 -0 -0 -0 0 0 0 0 0 0 -0 -0 0 0 0 -0 -0 -0 -0 0 0 -0 -1 -1 -1 0 -0 -1 -0 nan
nan -1 -1 -0 -0 -0 -0 -0 -0 -0 -0 -0 -0 -0 -0 -0 -0 -1 -1 -1 -0 -0 -0 -0 0 -0 -0 -0 -0 -0 0 -0 -1 -1 -0 0 -0 0 0 0 0 -0 -0 -0 0 0 0 -0 -0 -0 0 0 1 0 -0 -1 -1 0 0 -1 -0 -0 nan
nan -0 0 0 0 0 -0 -0 -0 -0 -0 0 -0 -0 -0 -0 -0 -1 -1 -1 -1 -1 -1 -1 -0 -0 -0 -0 -0 -0 -0 0 -0 -0 -1 -0 -0 0 -0 0 0 -0 -0 0 0 0 0 0 0 0 1 1 0 0 0 -1 -1 0 0 -0 0 0 nan
nan 0 0 0 0 0 0 -0 -0 -0 -0 -0 -0 0 -0 -0 -0 -0 -1 -1 -1 -1 -0 -0 -0 0 -0 -0 -0 -0 -0 -0 0 -0 -0 -1 -0 -0 -0 0 0 0 0 0 0 0 0 0 0 0 0 0 0 0 -0 -1 -0 0 0 0 0 1 nan
nan -0 -0 -0 -0 0 0 -0 -0 -0 -0 -0 -0 -0 -0 -0 -0 -1 -1 -1 -0 -0 -0 -0 0 0 0 0 0 0 -0 -0 0 0 -0 -1 -0 -0 0 0 0 0 0 -0 -0 0 0 0 0 -0 -0 -0 -0 -0 -0 -0 0 0 -0 -0 0 0 nan
nan -1 -1 -1 -0 0 0 -0 -1 -1 -1 -1 -0 -0 -0 -0 -0 -1 -1 -1 -0 -0 -0 -0 -0 -0 -0 -0 0 0 -0 -0 0 0 -0 -0 -0 0 -0 -0 -0 -0 0 -0 -0 0 0 0 -0 -1 -0 0 -0 -0 0 0 -0 -0 -1 -1 -0 -0 nan
nan -1 -1 -1 -0 -0 -0 -0 -1 -1 -1 -1 -1 -1 -0 -0 -0 -0 -0 -1 -1 -1 -0 -0 -0 -0 -0 -0 -0 0 0 -0 -0 -0 -0 -0 -0 -0 -0 -0 -1 0 1 0 -0 0 0 -0 -1 -1 0 0 -0 0 0 -0 -0 -0 -1 -0 -0 0 nan
nan -1 -1 -1 -1 -1 -1 -1 -1 -1 -1 -1 -1 -1 -1 -1 -1 -0 -0 -1 -1 -1 -1 -1 -1 -0 0 0 -0 -0 0 0 -0 -0 -0 -0 -0 -0 -0 -0 -0 0 1 0 0 1 0 -0 -0 -0 -0 -0 -0 0 0 -0 0 0 -0 -0 0 0 nan
nan -1 -1 -1 -1 -1 -1 -1 -1 -1 -1 -1 -1 -1 -1 -1 -1 -1 -1 -1 -1 -1 -1 -1 -1 -1 -0 0 0 0 -0 0 0 -0 -0 -0 -0 -0 -0 -0 -0 0 0 0 1 1 -0 -0 -1 -1 0 1 0 -0 -0 -0 1 1 0 -0 0 0 nan
nan -1 -1 -1 -1 -1 -1 -1 -1 -1 -1 -1 -1 -1 -1 -1 -1 -1 -1 -1 -1 -1 -1 -1 -1 -1 -0 -0 0 0 0 -0 -0 0 -0 -0 -0 -0 -0 -0 0 0 -0 -0 0 0 0 -0 -1 -1 1 1 -0 -0 0 0 1 0 0 0 0 -0 nan
nan -0 -0 0 0 0 -0 -1 -1 -1 -1 -1 -1 -1 -1 -1 -1 -1 -1 -1 -1 -1 -1 -1 -2 -2 -1 -1 -1 -0 0 -0 -0 -0 0 -0 -0 -0 -0 -0 0 0 -0 -0 -0 0 0 -0 -1 -1 1 1 -0 -0 0 0 0 0 0 0 0 -0 nan
nan -0 0 0 0 0 0 0 -0 -0 -1 -1 -1 -1 -1 -0 -0 -1 -1 -1 -1 -1 -1 -2 -2 -3 -3 -2 -1 -1 -0 -0 -0 -0 -0 0 -0 -0 -0 -0 -0 -0 0 0 0 -0 -0 -0 -0 -1 0 1 0 -0 0 0 0 -0 0 0 -0 -0 nan
nan -1 -0 -0 -0 0 0 0 0 0 0 -0 -1 -1 -1 -1 -1 -1 -1 -1 -1 -1 -1 -2 -1 -1 -2 -2 -2 -2 -1 -1 -0 -0 -0 0 -0 -0 -0 -0 -0 -0 -0 0 0 0 -0 -0 -0 -1 -0 1 0 -0 0 0 -0 -0 0 -0 -0 -0 nan
nan -1 -1 -1 -1 -0 -0 -0 0 0 0 0 -0 -1 -2 -3 -3 -2 -1 -1 -1 -1 -1 -1 -1 -0 -1 -1 -1 -1 -1 -1 -1 -1 -0 -0 -0 -0 -0 -0 -0 -0 -0 -0 -0 0 0 -0 -0 -0 -0 0 0 0 0 -0 -0 0 -0 -0 -0 -0 nan
nan -0 -1 -1 -0 -0 -1 -1 -1 -1 -1 -0 -0 -0 -1 -2 -3 -3 -2 -2 -2 -1 -1 -1 -1 -1 -1 -1 -1 -1 -1 -1 -1 -1 -1 -1 -0 -0 -0 -0 -0 -0 -0 -0 -0 0 0 0 -0 -0 -0 -0 0 1 0 -0 0 0 -0 -0 -0 -0 nan
nan -1 -1 -0 -0 -0 -0 -0 -1 -1 -1 -1 -1 -1 -1 -1 -1 -2 -3 -3 -2 -2 -1 -1 -1 -1 -1 -1 -1 -1 -1 -1 -1 -1 -1 -1 -1 -1 -1 -1 -0 0 -0 -0 -0 -0 0 0 0 -0 -1 -0 1 1 0 0 0 0 -0 -0 -0 -0 nan
nan -1 -1 -0 -0 -0 -0 -0 -1 -1 -1 -1 -1 -1 -1 -1 -0 -0 -1 -2 -2 -2 -2 -2 -1 -1 -1 -1 -1 -1 -1 -1 -0 -1 -1 -1 -0 -0 -1 -1 -1 -0 -0 -0 -0 -0 -0 0 0 0 -0 0 1 1 0 0 0 -0 -0 -0 -0 -0 nan
nan -1 -1 -0 -0 -0 -0 -1 -1 -1 -1 -1 -1 -2 -1 -1 0 1 0 -0 -1 -1 -2 -2 -1 -1 -2 -2 -1 -1 -1 -1 -1 -1 -0 -0 -0 -0 -0 -1 -1 -1 -0 -0 0 0 0 -0 0 0 0 0 0 0 0 0 -0 -0 -0 0 0 0 nan
nan -1 -1 -0 0 -0 -0 -1 -1 -1 -1 -1 -1 -1 -1 -0 0 0 0 0 0 -1 -1 -1 -2 -2 -1 -1 -2 -2 -1 -1 -1 -1 -1 -1 -1 -1 -1 -1 -1 -1 -0 -0 -0 0 0 0 -0 -0 0 0 0 0 -0 -0 -0 -0 0 0 1 1 nan
nan -0 -0 0 0 -0 -0 -0 -0 -1 -1 -1 -1 -1 -0 0 -0 -1 -0 0 0 -0 -1 -1 -2 -2 -2 -2 -2 -2 -2 -1 -1 -1 -1 -1 -1 -1 -1 -1 -1 -1 -1 -1 -0 0 0 0 -0 -0 -0 0 0 -0 -1 -0 0 0 0 1 1 1 nan
nan -0 0 0 -0 -0 -0 -0 -1 -1 -0 -0 -0 -0 -0 0 -0 -1 -1 -0 -0 -1 -1 -1 -1 -2 -2 -2 -2 -2 -2 -1 -1 -1 -1 -1 -1 -1 -1 -1 -1 -1 -1 -1 -0 0 0 0 -0 -0 0 0 0 -0 -1 0 1 0 1 1 1 0 nan
nan 0 0 0 -0 -0 -0 -0 -0 -0 -0 -0 0 -0 -0 -0 -0 0 -0 -0 -0 -0 -0 -0 -1 -1 -1 -2 -2 -2 -2 -2 -2 -2 -1 -1 -1 -1 -1 -1 -1 -1 -1 -1 -1 -0 -0 -0 -0 -0 0 0 -0 -1 -0 1 1 0 1 1 0 0 nan
nan -0 0 0 -0 0 0 -0 -0 -0 -0 -0 -0 -0 -0 -0 -0 -0 0 -0 -0 -0 -0 -0 -0 -0 -1 -1 -2 -2 -2 -3 -3 -3 -2 -1 -1 -1 -1 -1 -1 -1 -1 -1 -1 -1 -1 -1 -0 0 0 0 -0 -0 0 1 0 0 1 1 1 1 nan
nan -0 -0 0 0 0 0 -0 -0 -0 -0 -0 -0 -1 -1 -0 -1 -0 -0 -0 -0 -0 0 -0 -0 -0 -0 -0 -1 -1 -2 -2 -3 -3 -2 -2 -2 -2 -2 -2 -2 -2 -2 -1 -1 -1 -1 -1 -0 0 0 0 0 0 0 0 0 1 1 1 1 1 nan
nan -0 0 0 0 0 0 -0 -0 -0 -0 -0 -0 -1 -0 -0 -0 -0 -0 -0 -0 -0 0 0 0 -0 -0 -0 -0 -0 -0 -1 -1 -1 -2 -2 -3 -3 -3 -3 -3 -3 -3 -3 -2 -1 -1 -1 -0 0 0 0 1 1 1 0 0 1 1 1 1 1 nan
nan -0 0 0 0 -0 -0 -0 -0 -0 -0 -0 -0 -0 -0 -0 0 0 -0 -0 -1 -1 -0 0 0 0 -0 -0 -0 0 0 0 0 -0 -1 -1 -2 -2 -2 -2 -2 -2 -2 -2 -2 -2 -2 -1 -1 -0 0 1 1 1 1 1 0 1 1 1 1 1 nan
nan nan nan nan nan nan nan nan nan nan nan nan nan nan nan nan nan nan nan nan nan nan nan nan nan nan nan nan nan nan nan nan nan nan nan nan nan nan nan nan nan nan nan nan nan nan nan nan nan nan nan nan nan nan nan nan nan nan nan nan nan nan nan
Wind_Speed
6 7 8 9 11 12 12 13 14 14 13 13 13 13 13 16 17 18 19 19 20 21 20 21 22 22 22 23 24 24 26 28 28 29 29 29 31 34 34 34 36 37 31 22 21 22 19 20 23 24 24 23 24 26 27 26 23 21 21 20 21 20 19
6 7 8 9 10 11 11 11 12 13 13 13 13 14 15 17 18 19 20 19 19 20 21 22 23 22 23 25 25 25 27 28 28 28 28 28 30 32 34 35 34 35 35 28 23 22 20 18 19 21 21 20 22 24 26 26 24 22 22 21 21 21 19
10 9 9 10 11 11 11 10 9 10 11 12 12 13 14 16 17 18 20 20 20 21 22 23 23 24 26 27 27 27 27 26 26 27 28 28 28 29 31 34 34 33 33 31 27 24 22 20 19 18 18 19 21 23 26 27 26 24 23 22 21 21 19
13 13 12 11 12 12 12 10 9 9 10 11 12 13 13 14 15 16 18 21 21 21 22 24 25 26 28 27 27 28 27 25 24 24 25 27 27 27 29 32 33 31 30 30 30 29 27 25 24 22 20 19 19 20 23 26 26 24 23 22 21 21 19
15 15 13 12 12 13 13 13 12 11 11 11 12 13 14 14 15 16 17 19 22 23 25 26 27 28 29 28 27 28 28 26 25 23 23 26 27 27 28 31 31 30 29 28 29 31 30 30 29 25 22 19 18 18 20 23 25 25 24 24 22 22 20
11 12 13 13 13 14 14 14 14 13 13 12 12 12 14 16 16 17 18 19 21 22 23 25 26 28 30 30 28 29 29 29 27 25 24 25 27 27 27 29 30 29 28 27 28 29 30 32 31 27 23 22 20 19 19 21 24 25 25 25 24 23 22
4 5 8 11 13 13 13 14 14 13 12 12 11 12 13 16 17 18 19 21 21 22 22 23 24 26 29 30 30 30 30 30 29 27 26 26 27 26 25 28 29 29 28 27 28 29 29 30 31 28 25 24 22 21 20 21 24 26 27 27 26 25 24
2 3 6 8 10 11 12 13 13 12 11 11 12 12 13 15 16 17 19 20 21 22 23 23 24 26 28 30 31 32 31 30 30 29 27 26 26 26 26 26 27 28 28 26 28 29 29 29 30 28 26 26 25 22 21 22 24 27 28 28 28 27 27
4 5 7 8 7 6 9 12 13 12 12 13 14 14 15 15 16 17 18 20 21 22 24 25 25 26 28 30 31 33 32 30 29 29 28 26 25 25 25 25 26 27 26 25 26 28 29 29 30 29 28 29 28 25 22 23 24 26 27 28 29 29 28
8 9 9 10 9 6 7 9 10 11 11 12 15 16 17 17 17 17 19 21 23 24 25 26 27 28 29 30 30 31 31 29 27 28 29 26 23 23 22 23 26 25 23 23 25 26 27 27 29 30 29 29 29 28 25 25 27 27 27 29 30 31 30
16 14 13 11 10 9 8 8 9 9 10 11 13 14 15 15 15 16 19 22 23 25 27 28 29 29 29 29 28 28 27 26 26 28 28 26 23 22 22 22 25 24 23 24 25 26 26 26 27 29 29 28 28 29 28 27 28 28 28 30 30 31 31
21 19 16 14 12 11 11 11 11 11 11 11 11 11 11 12 13 15 18 21 24 26 28 28 27 26 26 26 24 24 24 24 25 27 28 25 22 23 22 21 24 25 24 25 26 27 28 28 29 29 29 28 28 28 28 28 28 27 28 29 30 30 30
22 21 19 18 16 14 14 14 14 13 13 13 12 12 12 12 15 18 20 22 24 23 23 22 22 21 22 22 21 21 22 23 24 25 26 24 23 23 22 21 24 26 26 27 28 29 29 30 30 30 29 29 28 27 28 29 28 26 25 26 28 29 29
23 23 21 21 19 17 15 16 16 15 15 14 14 14 14 15 17 18 20 22 21 19 19 19 18 18 18 19 19 20 21 21 22 21 22 23 23 22 22 21 24 26 26 27 27 29 30 30 30 29 29 28 28 28 29 30 29 26 24 24 26 27 28
24 24 23 23 22 19 18 18 18 17 16 15 15 15 16 17 18 17 18 19 18 17 17 17 16 16 17 18 18 18 19 21 19 16 18 20 19 20 21 21 23 25 26 26 26 28 29 29 29 28 27 28 29 29 29 31 30 28 26 24 25 27 27
23 24 24 24 23 20 18 19 19 19 18 17 16 15 15 16 18 18 17 17 17 16 17 17 17 17 16 17 17 17 17 18 14 11 13 15 16 17 19 20 21 22 24 26 26 27 28 28 28 28 27 28 29 28 30 31 30 28 27 25 25 27 28
20 23 24 24 23 20 18 19 20 21 20 19 17 16 15 15 17 18 18 18 17 17 16 16 16 16 16 16 17 16 16 15 13 11 10 11 14 15 15 16 18 20 23 26 27 27 28 29 29 28 28 29 29 29 29 30 29 28 28 27 27 28 29
19 21 22 24 24 22 20 19 20 23 23 22 20 19 17 16 15 17 17 18 19 18 16 15 14 15 15 15 15 15 14 13 11 10 10 11 13 13 12 13 15 18 21 24 27 27 26 27 28 28 28 29 29 29 28 29 29 30 30 30 29 28 30
21 22 23 24 25 24 22 20 22 24 25 24 23 22 20 19 18 17 16 16 18 19 18 15 14 15 15 14 14 14 13 11 10 9 9 11 12 12 11 11 13 16 18 21 24 25 24 25 26 27 29 30 29 28 29 30 31 32 32 31 29 29 31
24 23 24 25 26 26 24 23 24 25 25 25 25 25 23 22 21 20 19 17 17 19 19 18 17 17 15 15 14 13 13 12 12 11 9 11 11 10 10 11 13 15 17 19 20 20 21 22 23 25 27 29 29 29 30 30 31 32 32 32 30 30 32
29 27 26 25 26 26 24 24 25 25 25 25 26 26 25 24 23 22 21 20 19 20 20 21 21 20 18 16 15 14 14 13 13 11 9 9 10 9 9 10 12 14 16 17 18 17 18 20 22 24 26 27 27 28 29 30 30 31 32 33 32 31 32
33 32 31 31 30 29 27 26 25 25 25 25 25 26 25 24 24 24 23 22 22 21 21 22 23 23 21 20 18 17 15 13 12 12 10 9 8 8 9 10 11 13 15 16 17 17 16 18 21 23 26 28 29 27 27 28 30 32 33 33 32 31 32
32 33 34 35 35 35 33 31 30 28 26 25 25 26 26 25 24 25 26 25 24 24 24 24 25 24 23 22 22 20 17 14 13 12 11 11 10 9 9 10 10 12 15 15 16 16 15 17 21 23 26 29 30 28 27 27 29 32 34 34 33 33 33
30 31 33 34 34 35 35 35 35 34 33 30 27 26 28 28 27 27 27 27 27 27 27 27 26 24 23 23 22 22 20 17 14 13 12 12 13 11 9 10 12 12 14 16 16 16 16 17 20 22 24 27 27 27 28 28 29 31 33 34 35 35 34
27 28 30 31 32 32 33 35 36 36 37 36 32 28 29 31 32 31 30 29 28 28 28 28 28 26 24 23 22 21 20 18 16 14 13 14 15 13 10 12 13 14 14 15 16 15 14 15 16 19 21 23 25 27 28 28 28 29 31 34 36 37 36
26 26 26 27 28 28 30 32 33 35 37 38 37 34 32 32 34 36 35 33 31 30 29 29 29 28 26 24 22 21 19 18 16 14 13 12 12 12 12 13 14 14 14 14 15 14 13 12 14 17 18 20 23 26 27 25 24 24 27 31 35 36 35
27 26 25 25 25 26 27 28 30 32 34 36 38 37 35 34 36 38 38 37 36 34 32 31 30 29 27 26 24 21 18 16 14 13 12 10 9 9 11 13 14 14 14 13 13 13 12 11 12 15 18 20 22 23 24 24 23 23 24 27 31 33 33
26 27 27 26 28 28 26 26 28 30 31 34 37 36 34 35 37 38 38 39 39 38 37 35 32 31 29 28 26 23 19 15 11 10 10 9 8 8 10 11 13 14 14 13 12 12 11 12 12 13 16 19 20 20 22 24 24 24 24 26 30 31 32
26 28 28 28 31 33 31 28 27 27 29 31 34 34 33 34 36 38 39 40 40 40 39 39 37 34 32 30 28 25 23 19 13 10 9 8 8 9 10 12 13 14 13 13 13 13 13 12 14 14 14 17 19 20 22 23 24 26 26 26 28 30 31
26 27 28 29 30 33 35 32 28 26 27 29 31 31 32 33 35 36 37 39 40 40 39 39 39 38 36 33 31 29 27 24 19 14 10 8 7 8 9 11 13 14 14 13 14 14 14 14 16 16 16 18 19 20 21 22 24 26 27 26 26 28 31
26 27 28 30 30 32 35 35 32 28 27 28 29 28 29 32 34 33 34 37 38 39 39 39 39 39 39 37 34 32 30 28 25 22 17 12 10 9 9 9 10 13 14 14 14 14 14 16 18 19 19 19 20 20 20 23 26 27 27 28 28 30 33
25 26 27 29 30 31 33 35 35 33 31 30 30 27 26 28 32 32 33 35 35 36 37 38 39 39 39 38 36 34 33 31 30 28 25 20 16 13 11 10 9 10 11 13 14 14 15 15 17 18 18 20 21 21 21 24 27 29 31 32 31 32 34
26 26 25 27 29 30 32 35 36 35 35 35 34 30 26 26 30 32 34 34 32 33 35 36 37 38 38 37 37 36 35 34 34 33 30 26 23 20 17 14 11 10 11 11 11 12 13 14 14 15 17 20 22 22 21 22 24 28 31 31 31 30 28
26 25 23 24 27 30 31 34 36 36 36 37 37 36 32 30 32 35 37 35 32 31 32 34 34 35 36 36 35 35 35 35 35 34 32 30 29 28 26 23 18 15 14 13 12 10 11 13 15 15 17 20 22 22 21 20 21 25 27 27 29 29 25
25 24 24 25 28 30 31 33 35 36 37 37 37 38 37 35 36 38 39 39 36 31 29 30 32 32 33 35 34 33 32 31 31 32 33 33 33 32 32 30 27 23 21 18 15 11 10 12 15 16 16 18 21 22 19 17 18 22 23 22 24 27 26
23 24 26 27 28 29 30 32 34 35 37 37 37 38 39 38 38 40 41 42 41 36 29 26 28 29 30 33 33 32 31 29 28 28 29 30 31 32 32 31 29 26 24 21 19 15 12 11 13 16 16 18 21 21 17 15 17 19 20 19 20 21 23
18 23 27 27 28 29 30 32 34 35 36 37 37 37 39 39 40 42 44 45 45 42 32 24 24 26 27 29 32 32 32 31 28 26 25 25 26 27 28 29 28 26 24 21 19 16 13 11 12 14 17 19 22 19 14 13 15 16 17 17 18 19 21
Wind_Direction
284 289 287 284 288 291 290 292 294 292 291 293 298 296 289 286 285 284 281 280 281 283 286 285 281 279 277 277 276 275 274 267 261 258 257 256 256 257 254 247 243 244 240 231 222 218 215 219 224 225 226 229 231 231 230 230 229 229 231 230 225 220 220
274 281 288 290 293 299 304 302 296 294 294 294 294 293 292 292 291 291 290 289 286 286 286 282 282 282 279 277 276 275 275 271 267 265 262 259 257 258 257 250 245 243 240 235 226 219 218 223 221 219 221 222 226 228 228 228 229 228 228 227 222 218 219
267 273 286 294 292 296 305 312 311 305 303 302 298 295 294 293 292 293 293 293 291 289 287 284 283 282 280 281 281 280 278 276 273 267 262 261 258 256 257 255 249 244 241 237 230 223 227 229 221 223 230 229 228 228 226 226 227 226 225 225 221 214 213
265 272 283 296 297 297 300 308 317 316 311 310 309 309 308 303 299 297 294 293 294 294 293 292 292 290 286 285 286 284 280 277 275 271 264 262 261 259 257 256 254 249 246 243 237 231 232 231 225 230 240 239 236 235 230 227 225 225 222 220 218 214 211
260 269 281 294 297 296 297 301 306 307 307 311 316 319 317 311 305 301 298 296 296 296 295 295 296 296 294 289 285 283 280 276 274 274 270 265 264 264 259 256 254 250 247 248 246 240 239 236 230 233 240 239 234 233 231 228 226 224 218 214 215 215 212
260 267 271 278 286 290 293 298 301 303 305 309 314 317 316 313 309 304 302 301 300 299 297 296 297 296 294 291 286 282 280 276 274 271 268 265 264 264 261 256 252 248 245 245 246 244 242 238 233 235 241 239 233 230 227 225 224 221 215 213 214 212 207
288 291 275 270 275 282 287 291 294 299 303 306 306 308 312 313 310 306 305 306 307 307 305 302 301 299 297 294 291 285 279 275 273 270 266 265 263 261 258 254 249 246 244 242 245 245 242 239 236 236 238 235 232 233 231 225 222 220 215 212 211 210 207
3 324 298 287 282 280 280 280 281 285 291 294 292 294 302 307 308 306 305 307 308 309 308 306 305 304 302 299 295 289 281 274 270 268 265 263 262 259 256 252 248 245 241 239 244 247 243 239 237 238 237 230 224 226 230 225 219 219 218 213 209 209 208
16 342 328 328 324 299 282 279 278 277 280 282 283 289 299 305 307 307 304 305 307 306 306 306 306 305 303 300 298 294 287 279 271 266 263 261 260 258 255 251 246 244 241 238 241 245 244 239 235 234 234 230 225 221 220 220 220 220 219 215 210 207 206
22 8 356 353 354 346 321 306 297 292 287 282 283 289 297 301 308 310 306 302 305 307 307 308 307 305 303 300 297 296 292 286 277 267 260 258 260 257 251 248 246 244 240 236 236 240 241 238 232 229 229 230 231 227 219 216 219 220 217 215 213 209 205
22 18 15 9 3 359 353 344 331 322 312 303 300 300 299 302 310 312 306 303 308 311 310 307 305 304 303 300 296 295 294 290 284 273 263 257 256 255 250 246 246 245 239 235 236 239 238 234 229 226 226 227 230 232 230 226 225 223 218 215 215 212 207
23 21 20 17 14 10 4 358 350 343 335 331 331 327 318 317 319 315 312 316 319 319 316 312 308 305 303 300 298 296 294 291 285 278 271 262 253 249 248 246 245 243 238 237 239 239 237 234 231 228 228 229 231 233 234 235 234 226 219 217 216 214 210
21 20 19 22 25 22 14 6 1 358 353 348 347 344 336 328 324 321 323 330 332 334 337 334 327 321 312 308 306 302 300 297 290 282 274 266 255 248 245 245 246 242 238 238 240 241 237 233 233 232 231 232 234 233 231 234 237 231 223 223 221 215 210
21 20 21 25 29 29 22 12 6 3 358 354 353 352 348 340 334 331 334 339 340 343 351 350 344 337 326 320 319 315 309 304 297 286 272 261 254 249 246 244 244 242 239 238 240 242 241 238 236 234 233 234 235 232 228 230 233 232 228 226 223 218 211
23 21 22 26 28 31 28 18 11 7 4 3 360 355 351 348 345 343 345 346 343 345 349 347 342 339 330 322 320 317 311 306 300 288 269 257 251 248 244 241 242 243 240 238 240 242 243 243 242 238 234 234 234 231 227 227 229 230 230 226 219 217 214
29 22 22 24 26 30 30 23 18 13 11 10 7 1 357 353 348 347 350 350 345 344 347 345 341 339 336 330 325 321 316 308 297 281 264 256 257 254 247 243 245 247 244 240 240 243 244 243 243 242 237 234 233 229 224 225 226 226 228 225 215 211 210
34 27 21 20 23 31 34 30 25 22 19 16 13 10 6 358 351 349 350 349 344 341 342 343 341 337 335 334 331 329 326 315 298 284 274 268 269 267 259 254 253 253 250 245 245 246 246 245 241 239 237 233 230 227 221 219 221 224 226 223 216 210 208
35 31 24 22 25 30 35 34 31 29 27 23 20 16 11 6 359 354 351 346 341 338 337 340 340 336 334 333 331 326 324 321 306 292 288 284 280 275 269 262 258 257 254 252 250 246 247 248 244 240 237 232 229 226 220 217 219 223 224 223 221 214 209
34 33 30 29 28 29 33 35 32 31 31 29 26 22 16 11 7 2 355 347 338 333 333 336 338 337 334 333 332 324 316 314 313 308 302 295 288 281 276 271 265 262 259 258 255 250 249 250 246 242 237 231 228 225 222 220 221 223 223 224 224 217 209
33 35 35 35 31 28 31 33 30 27 28 29 28 27 23 18 14 9 4 357 345 334 330 327 328 331 332 333 333 327 315 307 306 312 312 302 294 285 276 272 271 271 268 266 265 260 256 250 244 245 241 231 227 226 224 222 221 221 219 218 222 220 213
30 33 36 37 33 29 31 34 31 27 25 25 25 25 25 23 21 16 11 6 358 347 336 328 326 326 326 328 331 328 321 311 303 303 303 301 301 295 282 275 276 279 277 275 275 270 261 250 244 246 243 235 230 229 225 221 220 219 216 214 217 218 215
30 31 32 33 31 30 31 33 32 29 25 23 21 19 19 19 19 18 16 12 6 358 350 346 345 339 329 325 326 326 324 316 305 300 295 294 299 298 291 286 282 280 280 279 277 273 264 252 247 248 247 240 233 229 224 220 218 216 212 212 214 215 213
31 31 30 29 30 30 29 29 28 28 27 25 22 18 14 12 13 15 16 15 11 7 3 0 357 350 339 330 324 323 323 320 312 306 304 303 300 297 295 294 291 285 283 281 276 271 262 252 250 252 252 246 237 229 224 221 220 217 212 210 212 213 211
35 34 31 30 30 29 28 26 25 24 23 22 21 19 15 12 10 10 12 13 12 11 10 6 360 353 345 335 328 324 323 322 317 313 310 304 298 297 304 307 306 301 295 290 282 270 258 251 250 252 253 250 243 236 229 224 220 218 215 212 212 213 213
40 38 36 33 31 31 29 25 22 20 18 17 18 20 19 15 12 10 9 11 10 10 10 8 2 356 349 341 334 329 326 324 321 318 313 306 301 304 310 311 308 307 304 300 291 278 261 250 250 253 251 246 243 241 236 231 225 218 216 215 214 216 217
40 38 38 36 32 33 34 28 22 18 16 15 15 18 21 20 17 14 12 12 11 10 11 10 6 2 357 350 343 336 330 328 328 326 321 313 308 306 302 298 298 301 305 304 299 292 275 253 249 251 244 234 235 240 239 236 233 228 223 221 219 219 220
39 34 33 31 30 34 39 36 28 19 15 14 14 15 20 23 22 18 16 15 13 11 12 12 11 8 5 1 355 348 340 333 332 332 326 316 312 306 295 291 292 293 294 295 296 295 283 267 257 248 234 225 230 237 236 234 234 232 229 227 225 224 224
39 33 30 30 32 34 38 41 36 25 17 14 13 15 20 23 23 20 18 16 15 13 11 10 11 11 10 8 5 2 356 349 342 335 329 320 310 298 289 286 287 287 285 284 285 283 278 276 270 254 237 230 231 231 229 229 229 226 224 225 226 228 229
39 35 33 32 34 33 34 38 38 32 23 15 13 17 22 23 23 21 19 17 16 14 11 9 9 11 11 11 10 11 10 7 2 348 337 330 315 298 287 281 279 279 280 281 279 273 266 267 268 259 248 241 235 229 228 228 226 223 223 224 225 227 227
41 37 35 33 31 30 30 33 36 35 28 17 14 19 22 20 19 19 18 15 15 15 14 11 9 8 9 10 11 14 16 16 15 9 358 343 328 312 299 288 279 275 275 276 276 272 262 257 260 256 250 246 242 235 230 227 223 221 220 221 221 222 220
42 39 36 33 30 27 27 29 33 35 31 22 18 23 24 18 16 17 17 14 14 15 16 14 12 10 9 9 10 13 15 17 18 17 13 3 347 331 320 307 288 277 274 271 269 268 260 253 252 251 247 246 246 241 232 223 219 216 217 218 217 217 217
42 41 36 32 30 27 24 27 30 32 32 27 25 30 30 21 16 16 15 12 13 16 16 15 14 12 10 9 10 12 14 16 18 18 16 13 5 351 337 325 302 284 279 272 267 267 264 257 252 250 246 244 244 244 238 229 222 216 216 217 216 217 218
44 44 38 31 29 28 25 26 27 28 29 28 28 31 32 24 18 17 14 12 13 16 17 14 14 13 12 11 12 11 12 14 16 16 16 17 15 9 360 348 330 307 293 282 272 266 264 260 252 245 243 245 247 248 246 240 232 224 220 217 217 220 219
42 45 41 32 30 30 27 26 26 26 26 26 25 26 28 26 22 20 19 16 15 17 17 15 13 12 12 13 13 13 12 12 12 13 15 16 17 17 13 8 359 344 327 312 295 274 258 254 246 238 239 245 249 251 250 246 235 226 221 217 216 218 216
37 41 39 33 30 29 26 24 25 25 23 24 24 24 24 23 21 20 19 19 17 15 16 17 14 10 11 14 16 16 14 10 7 9 12 14 16 16 14 12 9 2 353 341 325 303 273 252 239 231 234 241 243 246 247 239 227 223 221 218 217 217 216
33 35 33 29 27 27 25 23 23 22 21 21 22 22 21 20 18 17 15 15 15 13 13 16 16 12 10 14 17 18 18 14 9 7 9 12 14 14 13 11 8 3 358 353 346 334 313 282 251 232 226 228 233 236 233 222 220 223 221 217 215 215 214
30 31 28 24 24 26 25 22 21 21 20 19 19 20 19 17 16 15 13 11 11 11 11 14 16 13 11 12 14 16 19 19 16 13 12 9 8 10 11 11 8 4 360 358 355 347 333 308 272 242 224 220 224 226 221 215 216 215 207 201 203 205 206
Height
1542 1542 1542 1542 1542 1542 1542 1541 1541 1541 1540 1539 1538 1538 1538 1537 1536 1536 1535 1535 1535 1535 1535 1534 1533 1532 1532 1531 1531 1530 1529 1528 1527 1526 1526 1526 1526 1525 1526 1527 1528 1528 1530 1530 1530 1531 1531 1532 1533 1534 1535 1536 1537 1537 1538 1539 1540 1541 1541 1542 1543 1544 1544
1540 1540 1540 1540 1540 1540 1540 1540 1539 1538 1537 1537 1537 1537 1536 1536 1535 1534 1533 1533 1533 1532 1532 1531 1531 1530 1530 1528 1527 1527 1527 1526 1526 1525 1524 1524 1523 1523 1523 1524 1525 1525 1527 1528 1528 1529 1529 1529 1530 1531 1532 1534 1534 1534 1535 1537 1538 1538 1539 1540 1541 1542 1542
1538 1537 1538 1538 1538 1537 1537 1537 1536 1536 1535 1535 1535 1535 1535 1534 1534 1533 1531 1531 1531 1530 1530 1530 1529 1528 1526 1525 1524 1524 1523 1524 1523 1522 1521 1520 1519 1520 1520 1521 1522 1523 1524 1525 1525 1526 1527 1527 1528 1529 1530 1531 1531 1531 1532 1534 1535 1536 1537 1537 1539 1540 1540
1536 1536 1536 1536 1536 1535 1535 1535 1535 1535 1534 1534 1534 1534 1534 1533 1532 1531 1530 1529 1529 1529 1528 1527 1527 1525 1523 1522 1521 1520 1520 1520 1520 1519 1519 1517 1516 1516 1517 1518 1519 1520 1520 1521 1523 1524 1525 1525 1526 1527 1528 1529 1529 1529 1530 1531 1533 1534 1535 1535 1536 1538 1539
1535 1534 1534 1534 1534 1534 1534 1533 1533 1533 1533 1532 1532 1532 1531 1530 1529 1529 1529 1528 1527 1527 1526 1525 1524 1523 1520 1519 1518 1517 1516 1516 1516 1515 1514 1513 1513 1513 1514 1515 1516 1517 1517 1518 1520 1522 1522 1523 1524 1525 1526 1528 1528 1528 1528 1529 1530 1531 1532 1533 1534 1536 1537
1534 1533 1533 1532 1532 1532 1532 1532 1531 1530 1530 1529 1529 1528 1528 1527 1527 1527 1526 1526 1525 1524 1524 1522 1521 1520 1518 1516 1515 1514 1512 1511 1512 1511 1510 1510 1509 1509 1510 1511 1513 1514 1514 1516 1517 1518 1519 1520 1521 1523 1524 1525 1525 1526 1526 1527 1527 1528 1530 1531 1532 1534 1535
1533 1532 1532 1531 1531 1531 1531 1530 1529 1528 1527 1527 1526 1526 1526 1525 1525 1525 1524 1523 1522 1521 1520 1519 1518 1516 1514 1513 1512 1511 1509 1508 1508 1508 1508 1507 1506 1506 1506 1507 1509 1510 1511 1513 1515 1515 1516 1517 1518 1520 1521 1522 1523 1524 1524 1524 1525 1525 1526 1528 1530 1532 1533
1532 1531 1531 1530 1530 1530 1529 1529 1528 1528 1527 1526 1525 1525 1525 1524 1523 1523 1522 1521 1519 1518 1517 1516 1514 1513 1511 1509 1508 1507 1506 1505 1505 1504 1504 1504 1503 1503 1502 1503 1504 1506 1508 1510 1512 1512 1512 1514 1516 1517 1519 1519 1520 1521 1521 1522 1522 1522 1523 1525 1528 1529 1531
1531 1531 1530 1529 1529 1529 1529 1528 1527 1527 1527 1526 1525 1524 1523 1523 1521 1520 1519 1518 1516 1515 1514 1512 1511 1509 1507 1505 1504 1503 1502 1502 1502 1501 1501 1500 1500 1500 1500 1500 1501 1503 1506 1507 1508 1509 1510 1511 1512 1514 1515 1516 1517 1518 1519 1519 1519 1519 1521 1523 1525 1527 1529
1530 1529 1529 1528 1528 1527 1527 1527 1526 1526 1526 1524 1524 1523 1522 1521 1520 1518 1517 1515 1514 1513 1511 1509 1508 1506 1504 1502 1500 1499 1498 1498 1499 1498 1497 1497 1497 1497 1497 1497 1498 1501 1503 1504 1505 1506 1507 1507 1509 1510 1512 1513 1514 1515 1515 1515 1515 1516 1517 1519 1521 1523 1526
1529 1528 1528 1527 1527 1526 1526 1526 1525 1524 1524 1523 1522 1521 1520 1519 1518 1516 1515 1513 1511 1510 1508 1506 1504 1502 1500 1498 1496 1495 1494 1495 1495 1494 1493 1493 1493 1493 1494 1494 1496 1497 1499 1500 1501 1503 1504 1505 1506 1508 1509 1511 1512 1513 1513 1513 1512 1513 1514 1516 1518 1520 1523
1529 1528 1527 1526 1525 1525 1525 1524 1523 1523 1522 1521 1521 1519 1518 1517 1515 1514 1513 1511 1509 1507 1504 1502 1500 1498 1496 1494 1492 1492 1492 1492 1491 1490 1490 1490 1490 1491 1491 1491 1493 1495 1496 1497 1498 1500 1501 1503 1504 1506 1507 1508 1509 1510 1511 1511 1510 1511 1512 1513 1515 1517 1520
1529 1528 1526 1525 1524 1524 1524 1523 1522 1521 1521 1520 1519 1518 1516 1515 1514 1513 1511 1509 1507 1503 1501 1498 1496 1494 1493 1491 1490 1490 1489 1489 1488 1488 1488 1488 1489 1489 1489 1490 1491 1492 1493 1495 1496 1497 1499 1500 1502 1504 1505 1506 1507 1507 1508 1509 1509 1509 1511 1512 1513 1515 1518
1529 1528 1526 1525 1524 1523 1523 1522 1521 1520 1519 1518 1517 1516 1515 1514 1512 1511 1509 1507 1504 1501 1498 1496 1494 1492 1491 1490 1489 1488 1488 1486 1486 1486 1486 1486 1487 1487 1488 1488 1489 1490 1491 1493 1494 1495 1496 1498 1500 1501 1502 1502 1503 1504 1505 1506 1507 1508 1509 1510 1512 1514 1516
1530 1528 1526 1524 1523 1523 1522 1521 1520 1519 1518 1517 1515 1514 1513 1512 1511 1509 1508 1505 1503 1500 1497 1495 1493 1491 1489 1488 1487 1486 1486 1484 1483 1484 1484 1485 1485 1486 1486 1486 1487 1488 1489 1490 1491 1493 1494 1495 1497 1499 1500 1500 1500 1501 1502 1503 1504 1505 1507 1508 1509 1511 1513
1530 1528 1525 1524 1523 1522 1522 1521 1520 1519 1517 1516 1514 1513 1512 1511 1509 1508 1506 1504 1501 1499 1497 1495 1492 1490 1488 1487 1485 1484 1484 1483 1482 1482 1483 1483 1483 1484 1484 1484 1485 1486 1487 1487 1488 1490 1492 1493 1495 1496 1497 1497 1497 1498 1498 1500 1501 1502 1504 1505 1507 1508 1509
1530 1527 1525 1524 1523 1522 1522 1521 1520 1518 1517 1515 1514 1512 1511 1509 1508 1506 1504 1502 1500 1498 1496 1493 1491 1490 1488 1486 1484 1483 1482 1481 1481 1480 1481 1481 1481 1482 1482 1482 1483 1484 1484 1485 1486 1487 1488 1490 1492 1494 1495 1495 1494 1494 1495 1497 1498 1499 1501 1502 1504 1505 1507
1529 1528 1526 1525 1523 1522 1521 1521 1520 1518 1517 1515 1513 1511 1510 1508 1507 1505 1503 1501 1499 1497 1494 1492 1491 1489 1487 1485 1484 1482 1481 1481 1480 1479 1479 1479 1479 1480 1480 1480 1480 1481 1482 1482 1483 1485 1486 1488 1491 1493 1493 1492 1491 1491 1492 1494 1495 1496 1497 1499 1501 1503 1505
1529 1528 1527 1525 1524 1523 1521 1520 1519 1518 1516 1515 1513 1511 1509 1507 1505 1503 1502 1500 1498 1496 1494 1492 1490 1488 1486 1485 1483 1482 1481 1480 1479 1478 1478 1478 1478 1478 1478 1478 1478 1479 1479 1479 1480 1482 1484 1486 1489 1490 1490 1489 1489 1489 1490 1490 1491 1493 1494 1496 1498 1500 1502
1530 1528 1527 1526 1525 1523 1522 1521 1519 1518 1517 1515 1513 1511 1509 1507 1505 1503 1501 1499 1497 1495 1493 1491 1489 1487 1485 1483 1482 1481 1480 1479 1478 1477 1477 1477 1476 1476 1476 1476 1476 1476 1476 1477 1478 1480 1481 1482 1485 1486 1486 1486 1487 1488 1487 1487 1488 1490 1491 1493 1495 1497 1499
1531 1529 1528 1527 1526 1524 1522 1521 1520 1519 1517 1515 1513 1511 1509 1507 1505 1503 1501 1499 1496 1494 1492 1490 1488 1486 1484 1482 1481 1480 1479 1478 1477 1476 1476 1475 1475 1475 1475 1474 1474 1474 1474 1475 1476 1478 1479 1480 1481 1482 1484 1484 1485 1486 1486 1485 1486 1487 1488 1490 1492 1495 1497
1532 1531 1529 1528 1526 1524 1523 1521 1520 1519 1517 1515 1513 1511 1509 1507 1505 1502 1500 1498 1496 1494 1491 1489 1488 1485 1483 1481 1480 1479 1478 1477 1476 1475 1474 1474 1473 1473 1473 1473 1472 1472 1472 1472 1473 1475 1477 1478 1478 1480 1482 1483 1482 1483 1483 1483 1484 1484 1486 1487 1489 1492 1494
1533 1532 1530 1529 1527 1525 1524 1522 1520 1519 1517 1515 1513 1511 1509 1507 1504 1502 1500 1498 1496 1493 1491 1490 1488 1486 1483 1481 1479 1478 1477 1476 1475 1474 1473 1472 1472 1471 1471 1471 1470 1470 1470 1470 1471 1472 1474 1475 1476 1477 1480 1481 1480 1480 1480 1481 1481 1482 1483 1485 1486 1488 1490
1535 1533 1531 1530 1528 1527 1525 1523 1521 1520 1518 1516 1514 1512 1509 1507 1504 1502 1500 1498 1496 1493 1491 1490 1488 1486 1483 1480 1478 1477 1475 1475 1474 1473 1472 1471 1469 1469 1469 1469 1468 1468 1468 1468 1469 1470 1471 1472 1473 1474 1476 1477 1477 1477 1476 1476 1477 1479 1481 1482 1484 1485 1486
1536 1534 1533 1531 1530 1528 1526 1524 1522 1520 1518 1517 1515 1513 1510 1508 1505 1503 1500 1498 1496 1494 1492 1490 1487 1485 1482 1479 1478 1476 1475 1474 1473 1472 1471 1469 1468 1468 1467 1467 1466 1466 1466 1465 1466 1467 1468 1469 1469 1470 1472 1474 1474 1474 1473 1473 1474 1475 1477 1479 1481 1482 1484
1536 1535 1534 1533 1531 1529 1527 1525 1523 1522 1520 1518 1516 1513 1511 1509 1506 1503 1501 1498 1496 1494 1492 1490 1487 1485 1482 1479 1477 1475 1474 1473 1472 1471 1470 1468 1467 1466 1466 1466 1465 1464 1464 1463 1463 1463 1464 1465 1466 1467 1468 1470 1472 1472 1471 1472 1472 1473 1474 1476 1478 1479 1481
1538 1537 1535 1534 1532 1530 1528 1527 1525 1524 1522 1519 1517 1514 1512 1510 1508 1505 1502 1500 1497 1495 1492 1490 1488 1485 1482 1479 1476 1474 1473 1471 1470 1469 1468 1467 1466 1465 1464 1464 1463 1462 1462 1461 1460 1460 1461 1462 1463 1464 1465 1466 1468 1470 1470 1471 1471 1471 1473 1474 1475 1476 1478
1539 1538 1536 1535 1533 1531 1529 1528 1527 1525 1523 1521 1518 1516 1514 1511 1509 1507 1505 1502 1499 1496 1493 1491 1488 1485 1482 1479 1476 1474 1472 1470 1469 1468 1466 1465 1464 1463 1462 1462 1461 1460 1459 1459 1459 1458 1458 1460 1461 1462 1463 1463 1464 1467 1468 1469 1469 1470 1471 1472 1473 1474 1476
1540 1539 1537 1536 1534 1532 1531 1529 1528 1527 1525 1523 1520 1518 1515 1513 1512 1509 1507 1504 1501 1498 1495 1492 1488 1485 1482 1479 1476 1473 1471 1469 1467 1466 1465 1464 1463 1462 1460 1459 1459 1458 1457 1457 1457 1457 1457 1457 1458 1460 1461 1461 1462 1464 1465 1466 1467 1468 1469 1469 1471 1472 1473
1542 1540 1539 1537 1535 1534 1532 1531 1529 1528 1526 1524 1522 1519 1517 1515 1514 1511 1509 1505 1502 1499 1496 1493 1489 1486 1483 1480 1477 1474 1471 1469 1467 1466 1464 1463 1461 1460 1459 1457 1457 1456 1455 1455 1455 1455 1455 1456 1456 1457 1458 1458 1459 1460 1462 1463 1463 1464 1466 1467 1468 1469 1470
1543 1541 1540 1538 1537 1536 1534 1532 1531 1529 1527 1525 1523 1521 1519 1517 1515 1513 1510 1508 1504 1501 1498 1495 1491 1488 1484 1481 1478 1475 1472 1470 1468 1466 1464 1462 1460 1459 1458 1456 1455 1454 1453 1453 1453 1453 1454 1454 1454 1455 1456 1456 1456 1457 1459 1459 1459 1461 1462 1463 1464 1466 1466
1544 1543 1541 1540 1539 1538 1536 1534 1532 1530 1528 1527 1524 1522 1521 1519 1517 1514 1512 1509 1507 1503 1500 1497 1493 1490 1486 1483 1479 1477 1474 1471 1468 1466 1464 1462 1460 1458 1457 1455 1453 1452 1451 1451 1451 1451 1451 1451 1452 1452 1453 1454 1453 1454 1455 1456 1456 1458 1459 1459 1461 1462 1463
1545 1544 1543 1542 1541 1539 1537 1535 1533 1531 1529 1528 1526 1524 1522 1520 1518 1516 1513 1510 1508 1504 1501 1498 1495 1492 1488 1484 1481 1478 1475 1472 1469 1467 1465 1462 1460 1458 1456 1454 1452 1451 1449 1449 1449 1449 1449 1449 1450 1450 1450 1451 1451 1452 1452 1453 1454 1455 1456 1457 1459 1460 1461
1547 1546 1545 1543 1542 1540 1538 1536 1534 1532 1530 1528 1526 1524 1522 1521 1519 1517 1514 1511 1508 1506 1503 1500 1497 1494 1490 1487 1483 1480 1477 1474 1471 1469 1467 1464 1461 1458 1456 1453 1451 1449 1448 1447 1447 1447 1447 1447 1447 1448 1448 1449 1449 1450 1450 1450 1452 1453 1454 1456 1458 1458 1460
1548 1547 1546 1545 1543 1541 1539 1537 1535 1533 1531 1529 1527 1525 1523 1521 1519 1517 1514 1512 1509 1507 1504 1502 1499 1496 1492 1489 1486 1482 1479 1477 1474 1471 1468 1465 1462 1460 1457 1454 1451 1450 1448 1447 1446 1445 1445 1445 1445 1445 1446 1447 1447 1448 1448 1448 1450 1451 1451 1453 1454 1456 1458
1549 1548 1547 1545 1544 1542 1540 1538 1536 1534 1532 1529 1527 1525 1523 1521 1519 1517 1514 1512 1509 1507 1505 1502 1500 1497 1494 1491 1488 1485 1482 1479 1477 1473 1470 1467 1465 1462 1460 1457 1454 1452 1450 1447 1445 1444 1443 1443 1443 1443 1444 1445 1445 1445 1446 1447 1448 1449 1449 1450 1451 1453 1455
1550 1549 1548 1546 1545 1542 1540 1539 1536 1534 1532 1530 1528 1526 1524 1522 1520 1517 1514 1512 1509 1507 1504 1503 1501 1499 1496 1493 1490 1487 1484 1481 1478 1476 1473 1470 1468 1465 1462 1460 1457 1455 1452 1449 1447 1444 1443 1442 1441 1441 1441 1442 1443 1443 1444 1446 1447 1447 1448 1449 1450 1451 1453